Location: Rio Negrinho
(26.2394°S, 49.4999°W)
Time: 21:24:10
(UTC+00:00)

Delta 198 - Pass Details

Date: 07 June 2020
Orbit: 458 x 1020 km, 24.8° (Epoch: 10 July)

Event Time Altitude Azimuth Distance (km) Brightness Sun altitude
Exits shadow 08:44:29 27° 290° (WNW) 1,052 4.3 -16.8°
Maximum altitude 08:46:19 47° 349° (NNW) 753 4.0 -16.4°
Drops below altitude 10° 08:50:45 10° 62° (ENE) 2,007 7.5 -15.4°
Sets 08:53:24 0° 67° (ENE) 3,019 9.0 -14.9°
